Powrót do katalogu

THOR ABLESTAR DEB

AktywnyLEO
NORAD 147·DEBRIS·🇺🇸 United States

Wystrzelony Jun 29, 1961 z Cape Canaveral Space Force Station

Loading…

Następne Przeloty (najbliższe 24 godziny)

TLE

ŚwieżeSource: Space-Track

Epoka: Sep 7, 2026, 04:39 UTC

1 00147U 61015AH  26250.19424148  .00000466  00000-0  23491-3 0  9991
2 00147  66.6167 147.4074 0048370  12.4490 347.7787 14.24380996346142

Śledź THOR ABLESTAR DEB w czasie rzeczywistym z AllMySat

Download on the App Store